TIME,DELAY(SENSOR),PRES,OXYGEN,RAWTEMP,T(OPTODE),TCPHASE,FLUOR,BETA(BETA700),BETA(BETA412),BETA(BETA440),CDOM,C(CSC),ED(ED411.90),ED(ED443.80),ED(ED489.40),ED(ED554.70),LU(LU412.20),LU(LU443.80),LU(LU489.40),LU(LU555.00),COMP,TILTX,TILTY,CHECK
1342737366,5807,843.5900268554688000,170.9927978515625000,395.0433959960937500,10.7537298202514650,38.0743408203125000,52,102,98,79,80,14323,2146959012,2147515254,2147280301,2147503963,2147087378,2146932662,2147699254,2147120795,930,-2,8,302
1342740962,5804,966.7600097656250000,186.0171051025390600,477.9572143554687500,8.2117767333984380,38.4121284484863300,52,101,102,79,81,14316,2146957732,2147514843,2147291721,2147517924,2147092187,2146930569,2147714560,2147116534,2392,-1,8,3449
1342744562,5803,996.5599975585938000,198.6233062744140600,491.9388122558594000,7.7793679237365720,37.8448181152343750,52,101,99,77,80,14316,2146960438,2147516361,2147295981,2147520201,2147091126,2146924050,2147714550,2147117842,3556,-1,8,19125
1342748162,5806,1005.2500000000000000,200.2863006591797000,492.7892150878906000,7.7530322074890140,37.7559509277343750,52,102,98,79,81,14314,2146958939,2147516937,2147293586,2147522880,2147090569,2146923922,2147716041,2147116461,273,-1,8,49110
1342751762,5806,1010.6500244140625000,200.3123931884765600,493.9252014160156000,7.7178368568420410,37.7737388610839840,53,102,100,78,82,14306,2146957778,2147517193,2147293257,2147521261,2147090313,2146922258,2147717924,2147118582,2753,-1,8,52452
1342755362,5806,1009.4000244140625000,200.2530059814453000,494.1391906738281000,7.7112050056457520,37.7813415527343750,53,102,100,79,82,14117,2146960941,2147516251,2147296082,2147518976,2147089883,2146928274,2147712859,2147116434,2789,-1,8,10414
1342758962,5805,1009.5000000000000000,204.0287933349609400,498.3568115234375000,7.5804629325866700,37.6240882873535160,52,104,100,79,81,14112,2146959067,2147517083,2147293348,2147518902,2147091181,2146922267,2147716553,2147116260,607,-1,8,24193
1342762562,5806,1010.5700073242188000,204.6280975341797000,500.0604858398437500,7.5276169776916500,37.6171607971191400,52,102,100,83,82,14112,2146958555,2147518710,2147295597,2147522880,2147088841,2146924205,2147719488,2147113590,581,-1,8,61330
1342766162,5805,1010.9099731445312000,204.2554016113281200,500.3720092773437500,7.5179529190063480,37.6454200744628900,53,104,101,80,82,14114,2146959917,2147516041,2147293522,2147519689,2147088484,2146923648,2147714944,2147115401,200,-1,8,20726
1342769762,5805,1014.8300170898438000,203.7075958251953000,499.8374023437500000,7.5345368385314940,37.6688919067382800,52,102,100,79,81,14110,2146960054,2147518235,2147294857,2147520658,2147091538,2146922029,2147712649,2147117915,3438,-1,8,46190
1342773362,5806,1014.2500000000000000,204.1472930908203000,500.4649963378906000,7.5150671005249020,37.6533012390136700,52,103,99,79,81,14101,2146957293,2147516150,2147293129,2147522368,2147091840,2146925568,2147718692,2147118838,3453,-1,8,15174
1342776962,5807,1012.9299926757812000,203.6506042480468800,500.7636108398437500,7.5058021545410160,37.6892013549804700,53,103,101,79,82,14102,2146957933,2147519323,2147294043,2147519186,2147088630,2146926418,2147717421,2147118235,314,-1,8,20054
1342780562,5808,1013.2700195312500000,204.2689971923828000,502.2384033203125000,7.4600319862365720,37.6772499084472660,53,101,99,78,81,14098,2146960786,2147517001,2147296219,2147520164,2147092342,2146922605,2147718070,2147115318,452,-1,8,64518
1342784162,5807,1013.6900024414062000,205.9347991943359400,503.7370910644531000,7.4135069847106930,37.6038589477539060,52,102,100,79,82,14095,2146956498,2147516242,2147295762,2147522002,2147094436,2146918336,2147718427,2147113133,2801,-2,8,59234
1342787762,5807,1010.7500000000000000,205.8912963867187500,503.5425109863281000,7.4195489883422850,37.6022605895996100,52,102,100,80,82,14097,2146959872,2147520118,2147295360,2147521078,2147090505,2146921188,2147722020,2147117549,3147,-1,8,37736
1342791362,5804,1015.0499877929688000,205.8282012939453000,502.0827941894531000,7.4648618698120120,37.5806694030761700,53,102,100,79,82,14098,2146958637,2147515346,2147294299,2147521106,2147092178,2146916534,2147719670,2147118153,2369,-2,8,51532
1342794962,5806,1020.4199829101562000,205.4091033935547000,502.4876098632812500,7.4522972106933590,37.6131782531738300,52,103,100,84,82,14093,2146957540,2147516205,2147295213,2147521563,2147089664,2146924178,2147714066,2147117833,2943,-2,8,32305
1342798562,5805,1020.2700195312500000,205.2601013183593800,501.5582885742187500,7.4811401367187500,37.6053695678710940,52,101,99,79,81,14095,2146958418,2147515803,2147294930,2147519670,2147090834,2146925622,2147719094,2147115099,2730,-1,8,4349
1342802162,5807,1018.6300048828125000,205.2998962402343800,501.3992004394531000,7.4860777854919430,37.6005516052246100,52,103,101,78,82,14093,2146957193,2147520914,2147294902,2147519780,2147092598,2146920859,2147720338,2147117394,2699,-1,8,11209
1342805762,5806,1020.3699951171875000,204.4954071044922000,502.0040893554687500,7.4673061370849610,37.6594200134277340,52,100,99,78,81,14095,2146957220,2147518281,2147296457,2147519808,2147091620,2146921728,2147715456,2147116827,3244,-2,8,36792
1342809362,5806,1020.8699951171875000,205.2037048339843800,502.5138854980469000,7.4514818191528320,37.6254806518554700,52,102,99,81,80,14092,2146959341,2147519990,2147293888,2147520274,2147090304,2146922550,2147717056,2147116864,216,-1,8,30003
1342812962,5805,1018.9699707031250000,204.9566040039062500,502.3120117187500000,7.4577479362487790,37.6374702453613300,52,101,101,79,82,14077,2146956342,2147522395,2147294546,2147518747,2147090450,2146925357,2147718043,2147116772,445,-1,8,6602
1342816562,5808,1020.9699707031250000,205.2579956054687500,502.2795104980469000,7.4587559700012210,37.6188011169433600,52,102,100,78,82,14089,2146954496,2147522624,2147296667,2147520438,2147091081,2146922267,2147716132,2147116854,586,-1,8,58068
1342820162,5809,1016.5300292968750000,205.9528045654297000,503.8464050292969000,7.4101128578186035,37.6039886474609400,52,103,100,78,82,14087,2146958253,2147519113,2147293229,2147519570,2147090660,2146920996,2147721572,2147119131,857,-2,7,31165
1342823762,5807,1018.9299926757812000,206.8643951416015600,505.2554931640625000,7.3663539886474610,37.5746688842773440,52,103,100,78,81,14088,2146957997,2147519140,2147294948,2147520283,2147093001,2146923584,2147716361,2147114916,1257,-1,8,24207
1342827362,5807,1019.9600219726562000,206.3002929687500000,504.4906005859375000,7.3901100158691410,37.5944290161132800,53,104,99,78,81,14078,2146961426,2147522587,2147295442,2147521682,2147091821,2146920521,2147719104,2147114925,718,-1,8,22854
1342830962,5807,1021.8800048828125000,205.0240020751953000,504.0293884277344000,7.4044299125671390,37.6636085510253900,53,102,100,78,83,14075,2146956681,2147519341,2147294253,2147523913,2147090532,2146925074,2147716854,2147114176,3426,-1,8,41783
1342834562,5804,1025.9000244140625000,204.8842010498047000,502.9446105957031000,7.4381098747253420,37.6524314880371100,52,101,99,80,81,14079,2146957842,2147520969,2147295222,2147521490,2147089691,2146924928,2147720402,2147115108,3413,-1,8,11422
1342838162,5804,1028.2399902343750000,205.1145019531250000,502.1756896972656000,7.4619798660278320,37.6257400512695300,53,100,100,80,81,14077,2146958226,2147520731,2147294070,2147518436,2147090825,2146920420,2147716964,2147116269,1603,-2,8,23115
1342841762,5806,1025.6700439453125000,203.8282928466797000,502.2492065429687500,7.4596958160400390,37.7040596008300800,52,107,101,80,81,14074,2146959414,2147518144,2147294418,2147522157,2147091337,2146920694,2147719789,2147115465,32,-1,8,4604
1342845362,5808,1023.7000122070312000,204.0966949462890600,503.6174011230469000,7.4172220230102540,37.7117004394531250,53,101,100,78,81,14071,2146960137,2147519314,2147295689,2147521252,2147090477,2146921261,2147715958,2147117147,233,-1,8,55358
1342848962,5808,1019.7100219726562000,204.4322967529297000,504.4200134277344000,7.3923010826110840,37.7055892944335940,52,102,101,78,81,14075,2146957504,2147520896,2147293348,2147522971,2147091437,2146922514,2147716141,2147114688,365,-1,8,1163
1342852562,5804,1023.5700073242188000,205.3753967285156200,503.5903930664062500,7.4180622100830080,37.6337699890136700,52,103,100,78,80,14071,2146958912,2147519936,2147294683,2147524077,2147090651,2146920621,2147717376,2147117019,2589,-1,8,18547
1342856162,5804,1028.5400390625000000,205.8657073974609400,503.9807128906250000,7.4059438705444340,37.6120796203613300,52,105,100,79,82,14066,2146958957,2147522432,2147294226,2147521206,2147090578,2146923474,2147719195,2147112292,2643,-1,8,17504
1342859762,5805,1026.0200195312500000,205.8648986816406200,504.6994934082031000,7.3836231231689450,37.6245384216308600,52,103,100,79,81,14061,2146957238,2147519862,2147294829,2147523254,2147093184,2146923949,2147717321,2147115675,2945,-1,8,49779
1342863362,5805,1022.0800170898438000,206.1629028320312500,505.5411071777344000,7.3574838638305660,37.6212501525878900,52,103,100,79,82,14058,2146958628,2147519597,2147293814,2147522788,2147089993,2146927460,2147719140,2147117769,3077,-1,8,14503
1342866962,5806,1022.9400024414062000,206.4795989990234400,505.7338867187500000,7.3514947891235350,37.6056785583496100,52,102,101,80,83,14057,2146957046,2147518107,2147293101,2147520109,2147091346,2146926994,2147714523,2147116534,3196,-1,8,31331
1342870562,5802,1019.3699951171875000,206.9335021972656200,506.8619079589844000,7.3164501190185550,37.5986289978027340,52,105,101,79,81,14056,2146957165,2147519232,2147293430,2147520731,2147090514,2146921334,2147713380,2147117046,3227,-1,8,12823
1342874162,5806,1026.6899414062500000,207.0908050537109400,505.9733886718750000,7.3440527915954590,37.5733795166015600,52,104,100,80,81,14057,2146959817,2147521782,2147296393,2147520384,2147090038,2146922057,2147715145,2147115026,3547,-2,8,34647
1342877762,5807,1028.4200439453125000,206.6203002929687500,505.4515075683594000,7.3602662086486820,37.5927810668945300,52,103,101,79,82,14057,2146956443,2147520274,2147296210,2147518820,2147090486,2146921581,2147719058,2147117961,94,-2,8,15404
1342878656,5805,1027.6800537109375000,206.2774047851562500,504.4956054687500000,7.3899559974670410,37.5961914062500000,52,102,101,80,82,14238,2146958372,2147517202,2147294683,2147519140,2147089746,2146919753,2147721161,2147116306,3304,-2,8,16195
